TimeEST,TemperatureF,Dew PointF,Humidity,Sea Level PressureIn,VisibilityMPH,Wind Direction,Wind SpeedMPH,Gust SpeedMPH,PrecipitationIn,Events,Conditions,WindDirDegrees,DateUTC
12:54 AM,37.9,30.0,73,29.65,10.0,Calm,Calm,-,0.00,Rain,Light Rain,0,2014-02-15 05:54:00
1:54 AM,35.1,30.9,85,29.65,10.0,Calm,Calm,-,0.00,Rain,Light Rain,0,2014-02-15 06:54:00
2:54 AM,34.0,32.0,92,29.62,10.0,North,3.5,-,0.00,,Overcast,350,2014-02-15 07:54:00
3:54 AM,36.0,32.0,86,29.60,10.0,East,4.6,-,0.01,Rain,Light Rain,100,2014-02-15 08:54:00
4:54 AM,37.0,33.1,86,29.60,9.0,South,3.5,-,0.03,Rain,Light Rain,170,2014-02-15 09:54:00
5:54 AM,35.1,35.1,100,29.59,4.0,NNW,3.5,-,0.04,Rain,Light Rain,340,2014-02-15 10:54:00
6:54 AM,34.0,34.0,100,29.60,5.0,North,5.8,-,0.06,Rain,Light Rain,360,2014-02-15 11:54:00
7:34 AM,33.8,33.8,100,29.58,3.0,North,6.9,-,0.03,Rain,Light Rain,10,2014-02-15 12:34:00
7:40 AM,33.8,33.8,100,29.59,2.0,North,8.1,-,0.04,Snow,Light Snow,10,2014-02-15 12:40:00
7:54 AM,34.0,33.1,96,29.60,4.0,NNE,8.1,-,0.05,Rain,Light Rain,20,2014-02-15 12:54:00
8:10 AM,33.8,33.8,100,29.58,5.0,NNE,8.1,-,0.00,Rain,Light Rain,20,2014-02-15 13:10:00
8:54 AM,35.1,34.0,96,29.62,5.0,Variable,3.5,-,0.00,Rain,Light Rain,0,2014-02-15 13:54:00
9:54 AM,37.0,35.1,93,29.63,8.0,WNW,4.6,-,0.01,,Overcast,300,2014-02-15 14:54:00
10:54 AM,41.0,30.0,65,29.63,10.0,NW,10.4,23.0,N/A,,Mostly Cloudy,310,2014-02-15 15:54:00
11:54 AM,42.1,24.1,49,29.66,10.0,NW,10.4,24.2,N/A,,Partly Cloudy,310,2014-02-15 16:54:00
12:54 PM,41.0,19.9,43,29.70,10.0,NW,12.7,27.6,N/A,,Partly Cloudy,310,2014-02-15 17:54:00
1:54 PM,37.9,18.0,45,29.74,10.0,WNW,15.0,26.5,N/A,,Clear,300,2014-02-15 18:54:00
2:54 PM,37.9,16.0,41,29.78,10.0,West,9.2,16.1,N/A,,Clear,270,2014-02-15 19:54:00
3:54 PM,37.0,15.1,41,29.83,10.0,West,9.2,24.2,N/A,,Clear,280,2014-02-15 20:54:00
4:54 PM,36.0,14.0,41,29.87,10.0,WNW,10.4,18.4,N/A,,Clear,290,2014-02-15 21:54:00
5:54 PM,33.1,12.9,43,29.92,10.0,SW,4.6,-,N/A,,Clear,220,2014-02-15 22:54:00
6:54 PM,30.0,12.9,49,29.97,10.0,West,9.2,16.1,N/A,,Clear,280,2014-02-15 23:54:00
7:54 PM,28.9,12.9,51,29.99,10.0,West,6.9,-,N/A,,Clear,270,2014-02-16 00:54:00
8:54 PM,28.0,12.0,51,30.02,10.0,WSW,4.6,-,N/A,,Clear,250,2014-02-16 01:54:00
9:54 PM,28.0,12.9,53,30.03,10.0,WSW,4.6,-,N/A,,Clear,250,2014-02-16 02:54:00
10:54 PM,27.0,12.9,56,30.04,10.0,WSW,5.8,-,N/A,,Clear,240,2014-02-16 03:54:00
11:54 PM,27.0,12.9,56,30.03,10.0,West,5.8,-,N/A,,Clear,280,2014-02-16 04:54:00